| time (UTC) | temp C | wind direction | speed KPH | gust KPH | rain 1hr cm | rain 24hr cm | rain mn cm | humidity % | barometer mb |
| 20260905140057 | 18 | 119 | 3.2 | 12.9 | 0.00 | 0.15 | 0.00 | 83 | 1008.5 |
| 20260905134557 | 18 | 79 | 4.8 | 14.5 | 0.00 | 0.15 | 0.00 | 83 | 1008.3 |
| 20260905133051 | 18 | 20 | 0.0 | 6.4 | 0.00 | 0.15 | 0.00 | 84 | 1008.0 |
| 20260905131551 | 18 | 35 | 0.0 | 8.0 | 0.00 | 0.15 | 0.00 | 84 | 1007.9 |
| 20260905130046 | 17 | 355 | 1.6 | 6.4 | 0.00 | 0.15 | 0.00 | 86 | 1007.8 |
| 20260905124549 | 17 | 31 | 3.2 | 16.1 | 0.00 | 0.15 | 0.00 | 85 | 1007.7 |
| 20260905123042 | 17 | 55 | 3.2 | 8.0 | 0.00 | 0.15 | 0.00 | 86 | 1007.5 |
| 20260905121539 | 16 | 41 | 1.6 | 6.4 | 0.00 | 0.15 | 0.00 | 88 | 1007.5 |
| 20260905120037 | 16 | 34 | 1.6 | 6.4 | 0.00 | 0.15 | 0.00 | 89 | 1007.6 |
| 20260905114535 | 15 | 5 | 1.6 | 4.8 | 0.00 | 0.15 | 0.00 | 90 | 1007.5 |
| 20260905113036 | 15 | 18 | 1.6 | 4.8 | 0.00 | 0.15 | 0.00 | 91 | 1007.4 |
| 20260905111532 | 14 | 300 | 0.0 | 3.2 | 0.00 | 0.15 | 0.00 | 91 | 1007.3 |
| 20260905110031 | 13 | 298 | 0.0 | 1.6 | 0.00 | 0.15 | 0.00 | 91 | 1007.2 |
| 20260905104541 | 13 | 298 | 0.0 | 0.0 | 0.00 | 0.15 | 0.00 | 90 | 1007.1 |
| 20260905103032 | 13 | 298 | 0.0 | 3.2 | 0.00 | 0.15 | 0.00 | 90 | 1007.0 |
| 20260905101526 | 13 | 298 | 0.0 | 0.0 | 0.00 | 0.15 | 0.00 | 90 | 1006.9 |
| 20260905100024 | 13 | 298 | 0.0 | 0.0 | 0.00 | 0.15 | 0.00 | 90 | 1006.6 |
| 20260905094523 | 13 | 298 | 0.0 | 0.0 | 0.00 | 0.15 | 0.00 | 90 | 1006.3 |
| 20260905093020 | 13 | 298 | 0.0 | 0.0 | 0.00 | 0.15 | 0.00 | 90 | 1006.3 |
| 20260905091518 | 13 | 298 | 0.0 | 0.0 | 0.00 | 0.15 | 0.00 | 90 | 1006.1 |
| 20260905090021 | 13 | 298 | 0.0 | 1.6 | 0.00 | 0.15 | 0.00 | 89 | 1006.1 |
| 20260905084522 | 14 | 259 | 0.0 | 3.2 | 0.00 | 0.15 | 0.00 | 89 | 1006.1 |
| 20260905083016 | 14 | 259 | 0.0 | 1.6 | 0.00 | 0.15 | 0.00 | 88 | 1005.9 |
| 20260905081511 | 14 | 259 | 0.0 | 0.0 | 0.00 | 0.15 | 0.00 | 89 | 1006.0 |
| 20260905080018 | 15 | 259 | 0.0 | 1.6 | 0.00 | 0.15 | 0.00 | 89 | 1006.0 |
| 20260905074508 | 15 | 259 | 0.0 | 1.6 | 0.00 | 0.15 | 0.00 | 89 | 1006.0 |
| 20260905073019 | 15 | 259 | 0.0 | 3.2 | 0.00 | 0.15 | 0.00 | 89 | 1006.0 |
| 20260905071505 | 15 | 260 | 0.0 | 1.6 | 0.00 | 0.15 | 0.00 | 88 | 1005.9 |
| 20260905070004 | 15 | 260 | 0.0 | 1.6 | 0.00 | 0.15 | 0.00 | 89 | 1006.1 |
| 20260905064504 | 15 | 260 | 0.0 | 1.6 | 0.00 | 0.15 | 0.00 | 88 | 1006.1 |
| 20260905063002 | 15 | 260 | 0.0 | 1.6 | 0.00 | 0.15 | 0.00 | 88 | 1006.2 |
| 20260905061502 | 15 | 260 | 0.0 | 1.6 | 0.00 | 0.15 | 0.00 | 88 | 1006.2 |
| 20260905060001 | 15 | 259 | 0.0 | 1.6 | 0.00 | 0.15 | 0.00 | 88 | 1006.1 |
| 20260905054600 | 15 | 260 | 0.0 | 3.2 | 0.00 | 0.15 | 0.00 | 89 | 1006.1 |
| 20260905053059 | 15 | 264 | 1.6 | 3.2 | 0.00 | 0.15 | 0.00 | 89 | 1006.2 |
| 20260905051557 | 15 | 264 | 0.0 | 1.6 | 0.00 | 0.15 | 0.00 | 88 | 1006.2 |
| 20260905050056 | 15 | 264 | 0.0 | 1.6 | 0.00 | 0.15 | 0.00 | 87 | 1006.3 |
| 20260905044556 | 15 | 264 | 0.0 | 1.6 | 0.00 | 0.15 | 0.00 | 87 | 1006.4 |
| 20260905043113 | 15 | 264 | 0.0 | 1.6 | 0.00 | 0.15 | 0.00 | 87 | 1006.3 |
| 20260905041550 | 15 | 264 | 0.0 | 1.6 | 0.00 | 0.15 | 0.00 | 87 | 1006.2 |
| 20260905040112 | 16 | 264 | 0.0 | 1.6 | 0.00 | 0.15 | 0.00 | 87 | 1006.5 |
| 20260905034546 | 16 | 264 | 0.0 | 1.6 | 0.00 | 0.15 | 0.15 | 87 | 1006.4 |
| 20260905033045 | 16 | 264 | 0.0 | 1.6 | 0.00 | 0.15 | 0.15 | 87 | 1006.4 |
| 20260905031544 | 16 | 264 | 0.0 | 1.6 | 0.00 | 0.15 | 0.15 | 87 | 1006.4 |
| 20260905030045 | 16 | 264 | 0.0 | 3.2 | 0.00 | 0.15 | 0.15 | 87 | 1006.6 |
| 20260905024544 | 16 | 264 | 0.0 | 3.2 | 0.00 | 0.15 | 0.15 | 87 | 1006.6 |
| 20260905023044 | 16 | 306 | 0.0 | 6.4 | 0.00 | 0.15 | 0.15 | 87 | 1006.5 |
| 20260905021548 | 16 | 355 | 0.0 | 4.8 | 0.00 | 0.15 | 0.15 | 87 | 1006.6 |
| 20260905020042 | 17 | 277 | 0.0 | 4.8 | 0.00 | 0.15 | 0.15 | 87 | 1006.8 |
| 20260905014541 | 17 | 298 | 0.0 | 1.6 | 0.00 | 0.15 | 0.15 | 87 | 1006.7 |
| 20260905013044 | 17 | 297 | 0.0 | 6.4 | 0.00 | 0.15 | 0.15 | 86 | 1006.8 |
| 20260905011539 | 17 | 323 | 0.0 | 3.2 | 0.00 | 0.15 | 0.15 | 86 | 1006.9 |
| 20260905010044 | 17 | 323 | 0.0 | 1.6 | 0.00 | 0.15 | 0.15 | 86 | 1006.8 |
| 20260905004540 | 18 | 262 | 0.0 | 4.8 | 0.00 | 0.15 | 0.15 | 87 | 1006.8 |
| 20260905003038 | 17 | 196 | 0.0 | 3.2 | 0.00 | 0.15 | 0.15 | 86 | 1006.8 |
| 20260905001538 | 18 | 195 | 0.0 | 3.2 | 0.00 | 0.15 | 0.15 | 86 | 1006.8 |
| 20260905000038 | 18 | 167 | 0.0 | 4.8 | 0.00 | 0.15 | 0.15 | 86 | 1006.7 |
| 20260904234544 | 18 | 160 | 0.0 | 4.8 | 0.00 | 0.15 | 0.15 | 85 | 1006.4 |
| 20260904233036 | 19 | 236 | 0.0 | 3.2 | 0.00 | 0.15 | 0.15 | 86 | 1006.4 |
| 20260904231536 | 19 | 277 | 0.0 | 3.2 | 0.00 | 0.15 | 0.15 | 86 | 1006.2 |
| 20260904230035 | 20 | 277 | 0.0 | 3.2 | 0.00 | 0.15 | 0.15 | 86 | 1006.3 |
| 20260904224541 | 20 | 277 | 0.0 | 1.6 | 0.00 | 0.15 | 0.15 | 86 | 1006.4 |
| 20260904223034 | 20 | 277 | 0.0 | 3.2 | 0.00 | 0.15 | 0.15 | 86 | 1006.1 |
| 20260904221534 | 20 | 277 | 0.0 | 1.6 | 0.00 | 0.15 | 0.15 | 85 | 1006.1 |
| 20260904220054 | 21 | 277 | 0.0 | 1.6 | 0.00 | 0.15 | 0.15 | 85 | 1006.3 |
| 20260904214537 | 21 | 277 | 0.0 | 3.2 | 0.00 | 0.15 | 0.15 | 85 | 1006.1 |
| 20260904213033 | 21 | 44 | 0.0 | 3.2 | 0.00 | 0.15 | 0.15 | 85 | 1006.0 |
| 20260904211536 | 21 | 32 | 0.0 | 6.4 | 0.00 | 0.15 | 0.15 | 84 | 1006.1 |
| 20260904210041 | 22 | 262 | 0.0 | 3.2 | 0.00 | 0.15 | 0.15 | 86 | 1006.0 |
| 20260904204532 | 22 | 117 | 0.0 | 1.6 | 0.00 | 0.15 | 0.15 | 86 | 1006.0 |
| 20260904203043 | 22 | 117 | 0.0 | 1.6 | 0.00 | 0.15 | 0.15 | 87 | 1005.9 |
| 20260904201530 | 22 | 117 | 0.0 | 0.0 | 0.00 | 0.15 | 0.15 | 87 | 1005.8 |
| 20260904200030 | 22 | 117 | 0.0 | 3.2 | 0.00 | 0.15 | 0.15 | 87 | 1005.9 |
| 20260904194530 | 22 | 117 | 0.0 | 1.6 | 0.00 | 0.15 | 0.15 | 87 | 1005.8 |
| 20260904193032 | 22 | 117 | 0.0 | 1.6 | 0.00 | 0.15 | 0.15 | 86 | 1005.8 |
| 20260904191539 | 22 | 117 | 0.0 | 1.6 | 0.00 | 0.15 | 0.15 | 87 | 1005.7 |
| 20260904190033 | 22 | 117 | 0.0 | 0.0 | 0.00 | 0.15 | 0.15 | 86 | 1005.9 |
| 20260904184528 | 22 | 117 | 0.0 | 1.6 | 0.00 | 0.15 | 0.15 | 86 | 1006.2 |
| 20260904183024 | 25 | 117 | 0.0 | 3.2 | 0.00 | 0.15 | 0.15 | 82 | 1006.1 |
| 20260904181521 | 23 | 119 | 1.6 | 4.8 | 0.08 | 0.15 | 0.15 | 85 | 1006.1 |
| 20260904180021 | 22 | 13 | 0.0 | 1.6 | 0.15 | 0.15 | 0.15 | 88 | 1006.3 |
| 20260904174519 | 20 | 13 | 0.0 | 1.6 | 0.15 | 0.15 | 0.15 | 87 | 1006.3 |
| 20260904173030 | 21 | 13 | 0.0 | 1.6 | 0.15 | 0.15 | 0.15 | 86 | 1006.4 |
| 20260904171517 | 23 | 14 | 0.0 | 9.7 | 0.08 | 0.08 | 0.08 | 80 | 1006.5 |
| 20260904170016 | 23 | 156 | 0.0 | 0.0 | 0.00 | 0.00 | 0.00 | 74 | 1006.3 |
| 20260904164516 | 25 | 156 | 1.6 | 8.0 | 0.00 | 0.00 | 0.00 | 66 | 1006.3 |
| 20260904163011 | 25 | 343 | 1.6 | 9.7 | 0.00 | 0.00 | 0.00 | 66 | 1006.4 |
| 20260904161510 | 24 | 351 | 1.6 | 6.4 | 0.00 | 0.00 | 0.00 | 69 | 1006.5 |
| 20260904160008 | 24 | 63 | 0.0 | 3.2 | 0.00 | 0.00 | 0.00 | 72 | 1007.0 |
| 20260904154506 | 25 | 78 | 3.2 | 4.8 | 0.00 | 0.00 | 0.00 | 68 | 1006.9 |
| 20260904153003 | 24 | 131 | 1.6 | 4.8 | 0.00 | 0.00 | 0.00 | 76 | 1006.9 |
| 20260904151559 | 23 | 153 | 1.6 | 9.7 | 0.00 | 0.00 | 0.00 | 83 | 1007.0 |
| 20260904144606 | 22 | 92 | 1.6 | 6.4 | 0.00 | 0.03 | 0.00 | 81 | 1007.2 |
| 20260904143056 | 22 | 37 | 0.0 | 6.4 | 0.00 | 0.03 | 0.00 | 84 | 1007.2 |
| 20260904141550 | 21 | 30 | 1.6 | 3.2 | 0.00 | 0.03 | 0.00 | 84 | 1007.5 |